Regional Weather Roundup
Issued by NWS

Home | Current Version | Previous Version | Text Only | Print | Product List | Glossary On
Versions: 1 2 3 4 5 6 7 8 9 10 11 12 13 14 15 16 17 18 19 20 21 22 23 24 25 26 27 28 29 30 31 32 33 34 35 36 37 38 39 40 41 42 43 44 45 46 47 48 49 50
000
ASUS42 KTBW 272310
RWRFL
FLORIDA REGIONAL WEATHER ROUNDUP
NATIONAL WEATHER SERVICE TAMPA BAY RUSKIN FL
600 PM EST TUE JAN 27 2015

NOTE: "FAIR" INDICATES FEW OR NO CLOUDS BELOW 12,000 FEET WITH NO
SIGNIFICANT WEATHER AND/OR OBSTRUCTIONS TO VISIBILITY.


FLZ001>010-012>015-112-114-115-280000-
PANHANDLE FLORIDA

CITY           SKY/WX    TMP DP  RH WIND       PRES   REMARKS
PENSACOLA      CLEAR     64  33  31 N9        30.03R
PENSACOLA NAS  CLEAR     65  36  34 NW6       30.03R
MILTON NAS     PTCLDY    62  35  36 NW7       30.03R
CRESTVIEW      CLEAR     71  34  25 NW9       30.04R
DUKE FIELD     CLEAR     63  34  34 NW8       30.02R
VALPARAISO     CLEAR     64  33  30 NW8       30.02R
MARY ESTHER    CLEAR     64  31  28 NW7       30.01R
TRI COUNTY     FAIR      59  35  40 NW6       30.02R
PANAMA CITY    FAIR      61  37  41 NW8       30.00R
TYNDALL AFB    CLEAR     61  45  55 W12       30.01R
APALACHICOLA   CLEAR     63  43  48 W10       29.99R

STATION/POSITION SKY/WX   TEMP    WIND        PRES    WAVE   SWELL
                          AIR SEA DIR/SP/G            HT/PER HT/PER
                          (F)     (DEG/KT/KT) (MB)    (FT/S) (FT/S)
30.1N   87.6W              60 62  250/ 16/ 17 1016.6R   2/ 7   2/ 7
29.2N   88.2W              63 67  320/ 12/ 14 1018.6R   3/ 6   2/ 6
28.7N   86.0W              64 70  310/ 17/ 19 1016.7R   5/ 6
PANAMA CITY BEAC           64 60  300/ 10/ 14 1015.7R
CAPE SAN BLAS    NOT AVBL
TOWER C                    60     290/ 22/ 24 1015.5R
28.5N   84.5W              66 68  290/ 19/ 23 1015.3R   6/ 7   3/ 8

$$
FLZ011-016>038-118-127-128-134-139-239-280000-
NORTH FLORIDA

CITY           SKY/WX    TMP DP  RH WIND       PRES   REMARKS
MARIANNA       CLEAR     60  34  37 NW10      30.00R
TALLAHASSEE    CLEAR     61  32  33 NW8       29.98R
PERRY          CLEAR     60  35  39 NW9       29.97R
CROSS CITY       N/A     60  42  51 W9        29.96R
LAKE CITY      FAIR      55  37  50 NW7       29.95R
GAINESVILLE    CLEAR     59  38  45 NW8       29.93R
MAYPORT NAS    PTCLDY    56  37  49 VRB6      29.94R
JACKSONVILLE   CLEAR     55  35  47 NW8       29.94R
JAX NAS        PTCLDY    61  36  39 NW14      29.94R
JAX CRAIG      CLEAR     57  36  45 NW15      29.94R
JAX CECIL      CLEAR     57  36  44 NW14      29.94R
FERNANDINA BEA FAIR      59  36  41 NW10      29.93R
ST AUGUSTINE   CLEAR     59  38  45 NW10G17   29.93R

STATION/POSITION SKY/WX   TEMP    WIND        PRES    WAVE   SWELL
                          AIR SEA DIR/SP/G            HT/PER HT/PER
                          (F)     (DEG/KT/KT) (MB)    (FT/S) (FT/S)
SHELL POINT                64     350/  9/ 14   N/A
KEATON BEACH               60     350/  4/  8 1015.0R
CEDAR KEY                  60     300/ 10/ 13 1014.5R
FERNANDINA                 56 56  320/  9/ 10 1013.3R
30.7N   81.3W                 58                N/A     2/ 3
MAYPORT                    57 58  330/  9/ 13   N/A
31.4N   80.9W              53 54  320/ 19/ 23 1013.4R   3/ 4
ST AUGUSTINE               60     320/ 12/ 15 1013.6R

$$
FLZ040-043>046-052-053-057-058-063-144-280000-
INTERIOR CENTRAL FLORIDA

CITY           SKY/WX    TMP DP  RH WIND       PRES   REMARKS
OCALA          CLEAR     61  41  48 W12G20    29.94R
THE VILLAGES     N/A     61  45  55 W12G22    29.84R
LEESBURG       CLEAR     62  48  60 W18G24    29.94R
SANFORD        CLEAR     63  45  51 W16G25    29.92R
ORLANDO EXEC   CLEAR     64  46  52 W18G29    29.93R
ORLANDO INTL   PTCLDY    64  48  56 W18G26    29.94R
KISSIMMEE      CLEAR     63  48  59 W13G20    29.94R
WINTER HAVEN   CLEAR     63  48  58 W14G24    29.96S
LAKELAND       CLEAR     63  50  63 W8        29.96S
BARTOW         FAIR      63  46  55 W13       29.97R
OKEECHOBEE     CLEAR     63  46  55 W13G18    29.98R

$$
FLZ041-047-054-059-064-141-147-280000-
EAST CENTRAL FLORIDA

CITY           SKY/WX    TMP DP  RH WIND       PRES   REMARKS
ORMOND BEACH   CLEAR     63  45  51 W9G18     29.90R
DAYTONA BEACH  PTCLDY    62  45  53 W10       29.91R
DELAND         CLEAR    N/A N/A N/A W8        29.92R
NEW SMYRNA BEA CLEAR     63  43  48 W12G20    29.91R
JFK SPACE CTR  CLEAR     62  43  49 W13G20    29.91R
TITUSVILLE     CLEAR     63  43  48 W16G23    29.92R
CAPE CANAVERAL CLEAR     63  44  49 W10       29.91R
PATRICK AFB    CLEAR     64  46  52 W16       29.92R
MELBOURNE      CLEAR     63  45  51 W14       29.93R
VERO BEACH     CLEAR     64  45  49 W15       29.95R
FT PIERCE      CLEAR     63  46  54 W12       29.95R

STATION/POSITION SKY/WX   TEMP    WIND        PRES    WAVE   SWELL
                          AIR SEA DIR/SP/G            HT/PER HT/PER
                          (F)     (DEG/KT/KT) (MB)    (FT/S) (FT/S)
28.5N   80.2W              66 70  280/ 25/ 29 1012.1S
28.9N   78.5W              63 75  290/ 21/ 27 1012.7R  11/ 8
TRIDENT PIER               64 63  250/ 10/ 13 1012.6R
28.4N   80.5W                 63                N/A     2/ 3
27.6N   80.2W                 72                N/A     4/11   2/11

$$
FLZ050-056-061-142-242-148-248-149-249-151-251-155-255-
160-260-280000-
WEST CENTRAL FLORIDA

CITY           SKY/WX    TMP DP  RH WIND       PRES   REMARKS
CRYSTAL RIVER  FAIR      59  50  72 W10G16    29.96S
INVERNESS      FAIR      59  50  72 W7        29.96R
BROOKSVILLE    CLEAR     61  52  72 W13       29.97R
ZEPHYRHILLS    FAIR      63  46  55 W12G21    29.97S
CLEARWATER     CLEAR     64  53  67 W12G17    29.98R
TAMPA INTL     PTCLDY    65  52  62 W12       29.98R
TAMPA EXEC     PTCLDY    64  50  59 W6        29.98S
PLANT CITY       N/A    N/A N/A N/A MISG        N/A
MACDILL AFB    CLEAR     65  54  68 W13       29.98S
PETER O KNIGHT CLEAR     66  54  63 W8G17     29.98S
ST PETERSBURG  CLEAR     65  53  65 W12       29.97R
SARASOTA       CLEAR     64  53  67 W14       29.98S
VENICE         FAIR      64  55  72 W13       30.01S

STATION/POSITION SKY/WX   TEMP    WIND        PRES    WAVE   SWELL
                          AIR SEA DIR/SP/G            HT/PER HT/PER
                          (F)     (DEG/KT/KT) (MB)    (FT/S) (FT/S)
CEDAR KEY                  60     300/ 10/ 13 1014.5R
28.5N   84.5W              66 68  290/ 19/ 23 1015.3R   6/ 7   3/ 8
27.3N   84.3W                 72                N/A     6/ 6
CLEARWATER BEACH           64 62  270/ 12/ 14 1014.8R
MIDDLE TAMPA BAY           64     290/ 14/ 16 1015.4S
VENICE                     65 65  290/ 16/ 18 1015.5S

$$
FLZ066-069-070-075>078-162-262-165-265-280000-
SOUTHWEST FLORIDA AND KEYS

CITY           SKY/WX    TMP DP  RH WIND       PRES   REMARKS
PUNTA GORDA    PTCLDY    65  51  60 W18       30.01S
FT MYERS       MOCLDY    65  52  62 W15       30.00S
SOUTHWEST INTL MOCLDY    65  51  60 W10G20    30.01S
NAPLES         PTCLDY    66  53  63 W13       30.02R
MARCO ISLAND   MOCLDY   N/A N/A N/A W13G18    30.02S
IMMOKALEE      CLEAR     95  82  66 CALM      30.02S HX 119
MARATHON       CLEAR     65  56  72 W5        30.04S
KEY WEST NAS   PTCLDY    67  55  65 NW8       30.05S
KEY WEST INTL  CLEAR     67  57  70 NW12      30.05S

STATION/POSITION SKY/WX   TEMP    WIND        PRES    WAVE   SWELL
                          AIR SEA DIR/SP/G            HT/PER HT/PER
                          (F)     (DEG/KT/KT) (MB)    (FT/S) (FT/S)
VENICE                     65 65  290/ 16/ 18 1015.5S
NAPLES                     66 75  300/ 17/ 20 1017.1R
26.0N   85.6W              70 73  300/ 14/ 17 1017.9R   5/ 6   3/ 8
DRY TORTUGAS               69     300/ 11/ 12 1017.4S
SAND KEY                   67     320/ 11/ 13 1017.6R
SOMBRERO KEY               65     290/ 11/ 12 1017.9S
LONG KEY                   64 68  320/ 10/ 11 1017.9R
MOLASSES REEF              65 74  290/ 15/ 16 1016.7R

$$
FLZ067-068-071>074-168-172>174-280000-
SOUTHEAST FLORIDA

CITY           SKY/WX    TMP DP  RH WIND       PRES   REMARKS
W PALM BEACH   PTCLDY    67  43  41 W10       29.96R
FT LAUDER-EXEC CLEAR     66  40  38 W13       29.99R
FT LAUDERDALE  CLEAR     66  40  38 W10       29.98S
POMPANO BEACH  CLEAR     69  40  34 W10       29.99R
PEMBROKE PINES CLEAR     67  42  40 W10       30.00R
OPA LOCKA      CLEAR     67  43  41 W10       30.00R
MIAMI          CLEAR     67  45  45 W9        30.01R
WEST KENDALL   CLEAR     65  49  56 W15       30.02R
HOMESTEAD      CLEAR     65  49  56 W15       30.02R

STATION/POSITION SKY/WX   TEMP    WIND        PRES    WAVE   SWELL
                          AIR SEA DIR/SP/G            HT/PER HT/PER
                          (F)     (DEG/KT/KT) (MB)    (FT/S) (FT/S)
PORT EVERGLADES            67     250/  5/  8 1015.2
VIRGINIA KEY               67 68  260/ 14/ 17 1016.1R
LAKE WORTH                 67 73  250/ 10/ 14 1014.6R


USA.gov is the U.S. government's official web portal to all federal, state and local government web resources and services.